RSC196 GCXO-GCLP

Flight info

Callsign RSC196
Flight time 0h 20m
Altitude 9000
Route LALTO
Aircraft AT76/M-SDFGRY/LB1

Departure

Time 2026-04-23 00:25
Airport Tenerife Norte-Ciudad de La Laguna Airport (GCXO)

Arrival

Time 2026-04-23 00:45
Airport Gran Canaria Airport (GCLP)
Time Latitude Longitude Altitude Speed Heading
2026-04-23 00:14 28.48670 -16.34629 2066 ft 0 kts 20°
2026-04-23 00:21 28.48669 -16.34629 2066 ft 1 kts 20°
2026-04-23 00:21 28.48648 -16.34638 2067 ft 6 kts 19°
2026-04-23 00:21 28.48600 -16.34657 2067 ft 9 kts 18°
2026-04-23 00:22 28.48560 -16.34660 2068 ft 0 kts 300°
2026-04-23 00:22 28.48564 -16.34674 2069 ft 7 kts 282°
2026-04-23 00:22 28.48587 -16.34773 2073 ft 14 kts 290°
2026-04-23 00:22 28.48627 -16.34892 2079 ft 18 kts 290°
2026-04-23 00:23 28.48676 -16.35039 2079 ft 21 kts 290°
2026-04-23 00:23 28.48736 -16.35222 2074 ft 26 kts 290°
2026-04-23 00:23 28.48794 -16.35396 2071 ft 22 kts 290°
2026-04-23 00:23 28.48831 -16.35509 2068 ft 10 kts 290°
2026-04-23 00:24 28.48840 -16.35535 2067 ft 1 kts 291°
2026-04-23 00:24 28.48853 -16.35573 2066 ft 9 kts 292°
2026-04-23 00:24 28.48871 -16.35685 2064 ft 20 kts 261°
2026-04-23 00:24 28.48790 -16.35731 2068 ft 9 kts 129°
2026-04-23 00:25 28.48762 -16.35650 2070 ft 30 kts 110°
2026-04-23 00:25 28.48614 -16.35202 2082 ft 90 kts 111°
2026-04-23 00:25 28.48331 -16.34332 2135 ft 133 kts 109°
2026-04-23 00:25 28.48002 -16.33355 2706 ft 134 kts 111°
2026-04-23 00:26 28.47629 -16.32307 2934 ft 154 kts 112°
2026-04-23 00:26 28.47196 -16.31091 2995 ft 179 kts 112°
2026-04-23 00:26 28.46710 -16.29803 3510 ft 174 kts 114°
2026-04-23 00:26 28.46223 -16.28552 3984 ft 173 kts 114°
2026-04-23 00:27 28.45739 -16.27292 4401 ft 175 kts 115°
2026-04-23 00:27 28.45248 -16.26027 4840 ft 176 kts 115°
2026-04-23 00:27 28.44748 -16.24754 5252 ft 177 kts 115°
2026-04-23 00:27 28.44242 -16.23474 5652 ft 179 kts 115°
2026-04-23 00:28 28.43740 -16.22177 6048 ft 180 kts 114°
2026-04-23 00:28 28.43239 -16.20862 6434 ft 182 kts 114°
2026-04-23 00:28 28.42739 -16.19541 6775 ft 184 kts 114°
2026-04-23 00:28 28.42230 -16.18196 7148 ft 185 kts 115°
2026-04-23 00:29 28.41716 -16.16847 7491 ft 187 kts 115°
2026-04-23 00:29 28.41184 -16.15454 7694 ft 198 kts 115°
2026-04-23 00:29 28.40636 -16.14010 8001 ft 200 kts 116°
2026-04-23 00:29 28.40083 -16.12551 8319 ft 202 kts 116°
2026-04-23 00:30 28.39517 -16.11061 8641 ft 204 kts 116°
2026-04-23 00:30 28.38960 -16.09599 8921 ft 207 kts 117°
2026-04-23 00:30 28.38369 -16.08051 8999 ft 220 kts 116°
2026-04-23 00:30 28.37741 -16.06406 9037 ft 234 kts 116°
2026-04-23 00:31 28.37085 -16.04675 9043 ft 244 kts 116°
2026-04-23 00:31 28.36325 -16.02921 9045 ft 251 kts 122°
2026-04-23 00:31 28.35452 -16.01181 9050 ft 257 kts 123°
2026-04-23 00:31 28.34553 -15.99411 9046 ft 261 kts 123°
2026-04-23 00:32 28.33665 -15.97596 9045 ft 265 kts 122°
2026-04-23 00:32 28.32792 -15.95746 9045 ft 267 kts 121°
2026-04-23 00:32 28.31911 -15.93883 9046 ft 268 kts 121°
2026-04-23 00:32 28.31029 -15.92016 9045 ft 269 kts 121°
2026-04-23 00:33 28.30145 -15.90149 9048 ft 269 kts 121°
2026-04-23 00:33 28.29261 -15.88276 9044 ft 269 kts 121°
2026-04-23 00:33 28.28375 -15.86401 9042 ft 270 kts 122°
2026-04-23 00:33 28.27486 -15.84529 9041 ft 270 kts 122°
2026-04-23 00:34 28.26598 -15.82652 9042 ft 270 kts 122°
2026-04-23 00:34 28.25711 -15.80783 9041 ft 270 kts 122°
2026-04-23 00:34 28.24819 -15.78905 9045 ft 270 kts 122°
2026-04-23 00:34 28.23930 -15.77034 9042 ft 270 kts 122°
2026-04-23 00:35 28.23042 -15.75160 9044 ft 270 kts 122°
2026-04-23 00:35 28.22150 -15.73282 9043 ft 270 kts 122°
2026-04-23 00:35 28.21261 -15.71412 9045 ft 270 kts 122°
2026-04-23 00:35 28.20369 -15.69535 9047 ft 270 kts 122°
2026-04-23 00:36 28.19480 -15.67662 9043 ft 270 kts 122°
2026-04-23 00:36 28.18588 -15.65791 9044 ft 270 kts 122°
2026-04-23 00:36 28.17696 -15.63921 9043 ft 270 kts 122°
2026-04-23 00:36 28.16808 -15.62052 9046 ft 270 kts 122°
2026-04-23 00:37 28.15914 -15.60175 9045 ft 270 kts 122°
2026-04-23 00:37 28.15023 -15.58308 9044 ft 269 kts 122°
2026-04-23 00:37 28.14131 -15.56439 9042 ft 269 kts 122°
2026-04-23 00:37 28.13244 -15.54575 9043 ft 269 kts 122°
2026-04-23 00:38 28.12357 -15.52712 9046 ft 269 kts 122°
2026-04-23 00:38 28.11466 -15.50850 9051 ft 269 kts 122°
2026-04-23 00:38 28.10574 -15.48985 9050 ft 269 kts 122°
2026-04-23 00:38 28.09683 -15.47118 9048 ft 270 kts 122°
2026-04-23 00:39 28.08790 -15.45253 9047 ft 270 kts 122°
2026-04-23 00:39 28.07891 -15.43388 9047 ft 268 kts 123°
2026-04-23 00:39 28.06803 -15.41708 9049 ft 264 kts 137°
2026-04-23 00:39 28.05499 -15.40252 9045 ft 263 kts 141°
2026-04-23 00:40 28.04153 -15.38845 9045 ft 263 kts 142°
2026-04-23 00:40 28.02814 -15.37429 9045 ft 263 kts 141°
2026-04-23 00:40 28.01504 -15.35977 8997 ft 265 kts 140°
2026-04-23 00:40 28.00186 -15.34494 8414 ft 262 kts 139°
2026-04-23 00:41 27.98953 -15.33116 7842 ft 234 kts 142°
2026-04-23 00:41 27.97624 -15.32255 7286 ft 212 kts 159°
2026-04-23 00:41 27.96286 -15.31599 6691 ft 206 kts 161°
2026-04-23 00:41 27.94908 -15.31352 6038 ft 199 kts 183°
2026-04-23 00:42 27.93534 -15.31485 5379 ft 204 kts 192°
2026-04-23 00:42 27.92131 -15.31940 4739 ft 211 kts 200°
2026-04-23 00:42 27.90772 -15.32495 4077 ft 206 kts 201°
2026-04-23 00:42 27.89449 -15.33072 3424 ft 202 kts 201°
2026-04-23 00:43 27.88232 -15.33779 2821 ft 192 kts 224°
2026-04-23 00:43 27.87633 -15.35046 2332 ft 181 kts 263°
2026-04-23 00:43 27.87755 -15.36406 1885 ft 169 kts 288°
2026-04-23 00:43 27.88266 -15.37569 1438 ft 165 kts 299°
2026-04-23 00:44 27.88810 -15.38671 1048 ft 158 kts 300°
2026-04-23 00:44 27.89442 -15.39603 794 ft 140 kts 326°
2026-04-23 00:44 27.90289 -15.39839 565 ft 120 kts
2026-04-23 00:44 27.91079 -15.39588 321 ft 119 kts 21°
2026-04-23 00:45 27.91850 -15.39248 140 ft 119 kts 20°
2026-04-23 00:45 27.92594 -15.38923 64 ft 103 kts 21°
2026-04-23 00:45 27.93179 -15.38661 53 ft 81 kts 20°
2026-04-23 00:45 27.93599 -15.38478 53 ft 41 kts 19°
2026-04-23 00:46 27.93803 -15.38424 58 ft 26 kts
2026-04-23 00:46 27.93947 -15.38443 65 ft 17 kts 351°
2026-04-23 00:46 27.94051 -15.38507 66 ft 16 kts 295°
2026-04-23 00:46 27.94073 -15.38603 70 ft 12 kts 257°
2026-04-23 00:47 27.94078 -15.38680 81 ft 7 kts 291°
2026-04-23 00:47 27.94085 -15.38702 85 ft 0 kts 290°